Location: Santa Cristina
(46.5667°N, 11.7167°E)
Time: 18:22:22
(UTC+00:00)

Cosmos 1898 Rocket - Pass Details

Date: 21 April 2021
Orbit: 752 x 784 km, 74.0° (Epoch: 12 May)

Event Time Altitude Azimuth Distance (km) Brightness Sun altitude
Exits shadow 01:31:54 54° 171° (S) 927 3.6 -23.7°
Maximum altitude 01:33:00 72° 109° (ESE) 810 3.6 -23.6°
Drops below altitude 10° 01:38:16 10° 26° (NNE) 2,332 7.0 -23.0°
Sets 01:40:40 0° 24° (NNE) 3,268 8.1 -22.7°
